Location: Aste
(43.0167°N, 0.4167°W)
Time: 10:02:32
(UTC+00:00)

Daily predictions for brighter satellites

Satellite Brightness Start Highest point End
(mag) Time Altitude Azimuth Time Altitude Azimuth Time Altitude Azimuth
Cosmos 2369 4.4 16:48:03 10° N 16:53:08 31° NE 16:58:11 10° ESE
Cosmos 1842 Rocket 3.7 16:50:42 10° S 16:55:10 84° W 16:59:40 10° N
USA 234 3.5 16:49:34 10° ESE 16:55:52 53° NNE 17:02:10 10° NW
CZ-4C R/B 3.7 16:50:50 10° NNW 16:56:58 31° NE 17:04:01 10° E
Cosmos 1092 Rocket 4.3 16:52:45 10° N 16:58:51 46° ENE 17:04:54 10° SSE
Cosmos 2084 3.5 16:54:44 10° NNW 16:59:02 65° NE 17:03:30 10° SE
Cosmos 1812 4.5 16:57:16 10° ESE 16:59:22 14° E 17:01:27 10° NE
NOSS 3-1 (A) 4.1 16:52:00 10° NNW 16:59:35 72° NE 17:08:24 10° SE
NOSS 3-1 (C) 4.4 16:52:04 10° NW 16:59:43 79° WSW 17:08:35 10° SSE
SL-16 R/B 4.0 17:00:45 10° NNE 17:01:45 10° NE 17:02:45 10° NE
ISS -2.4 16:58:57 10° NW 17:01:50 25° NNE 17:04:42 10° ENE
Meteor 1-25 Rocket 4.3 16:59:03 10° N 17:04:31 55° ENE 17:10:01 10° SSE
SMAP 3.2 17:00:09 10° SSE 17:04:38 50° ENE 17:09:09 10° N
Cosmos 2082 Rocket 3.0 16:59:40 10° SSE 17:04:39 33° ESE 17:09:39 10° NE
Meteor PRIRODA 3.6 17:01:41 10° SSE 17:05:19 88° WSW 17:08:58 10° NNW
Cosmos 1939 Rocket 3.0 17:01:51 10° SSE 17:05:51 54° ENE 17:09:51 10° N
CORIOLIS 4.3 17:02:25 10° SE 17:07:37 51° ENE 17:12:51 10° N
NOAA 12 4.2 17:05:28 10° SSE 17:10:48 90° ENE 17:16:09 10° NNW
Cosmos 44 4.4 17:07:30 10° NW 17:12:01 46° WSW 17:16:16 10° S
CZ-4B DEB 4.4 17:08:42 10° SE 17:14:00 50° ENE 17:19:17 10° N
Cosmos 1602 3.8 17:14:13 10° N 17:18:00 51° E 17:21:46 10° SSE
AQUARIUS 4.2 17:14:09 10° SSE 17:18:32 58° ENE 17:22:58 10° N
Cosmos 540 Rocket 3.5 17:14:35 10° S 17:19:36 65° ESE 17:24:41 10° NNE
Cosmos 2034 Rocket 4.3 17:14:50 10° SSW 17:20:58 73° W 17:27:08 10° N
ARGOS 4.0 17:19:50 10° ESE 17:24:19 27° ENE 17:28:48 10° N
COSMOS 2406 3.2 17:19:28 10° SSW 17:25:13 80° ESE 17:30:59 10° NNE
Cosmos 1833 Rocket 2.8 17:20:56 10° SSW 17:26:33 78° WNW 17:32:12 10° NNE
COSMO-SKYMED 1 3.6 17:23:42 10° NE 17:27:22 26° E 17:31:01 10° SSE
Cosmos 1782 2.9 17:24:18 10° S 17:28:12 55° E 17:32:06 10° NNE
ATLAS 5 CENTAUR R/B 3.6 17:24:57 10° NW 17:31:04 21° N 17:33:07 15° NE
Meteor 2-21 4.4 17:25:20 10° N 17:31:22 61° E 17:37:18 10° SSE
CZ-2C R/B 3.8 17:32:15 10° SSE 17:32:44 10° SSE 17:33:12 10° SSE
Cosmos 1633 Rocket 3.8 17:32:04 10° NNE 17:35:54 29° ENE 17:39:44 10° SE
CZ-2D R/B 3.2 17:35:34 10° SSE 17:39:20 59° ENE 17:43:06 10° N
Cosmos 1898 Rocket 3.8 17:34:48 10° NNW 17:40:01 70° WSW 17:45:11 10° S
Cosmos 1634 Rocket 4.0 17:35:18 10° S 17:41:37 78° E 17:47:57 10° N
COSMOS 2455 2.8 17:36:26 10° SSW 17:42:27 80° ESE 17:48:14 11° NNE
PAYLOAD B 4.2 17:38:13 10° SSE 17:43:46 70° ENE 17:49:21 10° N
CZ-4B R/B 3.3 17:41:08 10° SE 17:46:21 50° ENE 17:51:31 10° N
CZ-2C R/B 2.8 17:41:56 10° NNE 17:46:55 46° E 17:51:51 10° S
Cosmos 1151 Rocket 3.2 17:43:04 10° SSE 17:47:13 48° E 17:51:24 10° NNE
Cosmos 1500 3.0 17:43:47 10° N 17:47:32 76° E 17:51:14 10° SSE
Cosmos 2026 Rocket 3.9 17:43:02 10° N 17:49:11 89° W 17:55:15 10° S
Lacrosse 5 rocket 2.7 17:47:11 10° NNW 17:50:11 20° NNE 17:50:36 20° NE
Okean O Rocket 2.0 17:46:19 10° SE 17:50:27 39° ENE 17:54:36 10° N
Meteor 2-14 Rocket 4.4 17:48:21 10° N 17:54:29 88° W 18:00:33 10° S
Cosmos 2208 Rocket 4.3 17:53:14 10° S 17:58:21 46° ESE 18:01:39 21° NE
GPS 2-04 Rocket1 4.5 17:55:10 10° WSW 17:58:39 27° S 18:01:28 13° SE
Cosmos 1666 Rocket 3.4 17:57:24 10° N 18:01:51 68° E 18:06:13 10° SSE
H-2A R/B 2.0 17:57:16 10° SSE 18:02:28 89° WSW 18:07:33 10° NNW
NOSS 2-2 (C) 4.4 17:57:11 10° NW 18:02:34 81° NE 18:10:12 10° SE
Meteor 1-11 Rocket 4.4 17:58:56 10° N 18:03:50 30° ENE 18:05:46 24° ESE
Cosmos 1328 Rocket 3.6 18:00:24 10° S 18:04:43 53° E 18:07:30 21° NNE
Cosmos 1470 Rocket 4.1 18:00:55 10° N 18:05:01 35° ENE 18:09:07 10° SE
USA 267 4.0 18:01:03 16° NE 18:05:59 45° NNW 18:12:05 10° W
Cosmos 1655 Rocket 4.3 18:01:09 10° N 18:07:12 42° ENE 18:13:10 10° SE
Cosmos 2360 Rocket 4.1 18:05:44 10° N 18:07:09 13° NNE 18:07:09 13° NNE
Landsat 5 3.5 18:08:42 36° NE 18:09:59 51° E 18:13:51 10° S
Cosmos 2180 Rocket 4.4 18:07:08 10° S 18:13:25 67° E 18:19:39 10° NNE
Cosmos 841 Rocket 4.1 18:08:44 10° SW 18:13:48 55° WNW 18:18:52 10° NNE
SKYMED 2 3.5 18:12:01 15° NNE 18:15:36 87° E 18:19:56 10° SSW
Feng Yun 1-1 Rocket 4.5 18:10:07 10° SE 18:15:47 50° ENE 18:21:26 10° N
Meteor 2-8 Rocket 4.4 18:10:53 10° S 18:16:59 69° E 18:23:08 10° NNE
Cosmos 1666 2.5 18:13:16 10° N 18:17:00 88° W 18:20:42 10° S
ATLAS CENTAUR R/B 3.7 18:09:43 10° WSW 18:18:14 40° NW 18:20:43 22° NNE
Cosmos 1125 Rocket 4.1 18:18:11 10° N 18:22:14 35° NE 18:22:14 35° NE
SL-24 R/B - RUBIN 2 3.9 18:22:15 10° NW 18:26:40 62° WSW 18:30:54 10° SSE
Cosmos 2322 Rocket 3.3 18:24:22 10° N 18:27:49 26° NNE 18:27:49 26° NNE
SL-08 RB Rocket 3.6 18:29:00 10° SSE 18:33:38 76° ENE 18:38:15 10° N
Cosmos 1812 4.1 18:31:07 10° SSW 18:34:43 38° WNW 18:37:47 13° N
Cosmos 1980 Rocket 2.8 18:29:54 10° NNW 18:35:26 56° WSW 18:40:54 10° S
USA 234 3.9 18:32:30 10° SSE 18:38:52 53° SW 18:45:15 10° NW
ISS -2.7 18:35:34 10° WNW 18:37:58 43° WNW 18:37:58 43° WNW
deb Chang Zheng 4 4.3 18:35:31 10° S 18:39:43 52° W 18:43:57 10° NNW
CZ-4C R/B 3.0 18:38:53 10° NW 18:46:20 84° SW 18:54:54 10° SSE
Cosmos 1515 Rocket 3.8 18:42:29 10° S 18:46:04 57° S 18:46:04 57° S
SL-16 R/B 2.6 18:41:42 10° NNW 18:46:11 46° NNE 18:46:11 46° NNE
Cosmos 2082 Rocket 3.4 18:43:20 10° SW 18:48:37 39° WNW 18:52:36 17° N
Cosmos 44 Rocket 3.6 18:49:13 10° NNW 18:53:09 56° NNW 18:53:09 56° NNW
COSMO-SKYMED 1 4.4 19:00:37 15° NNW 19:03:30 29° WNW 19:07:14 10° SW
ARGOS 4.3 18:59:15 10° S 19:04:21 43° W 19:09:30 10° NNW
Meteor 1-27 Rocket 4.1 19:02:38 10° S 19:06:41 51° S 19:06:41 51° S
DMSP B5D2-2 4.2 19:10:16 68° SW 19:10:16 68° SW 19:14:52 10° SSW
Cosmos 2298 Rocket 4.2 19:04:40 10° NNW 19:09:28 69° WNW 19:09:28 69° WNW
Cosmos 921 Rocket 4.2 19:06:29 10° SW 19:09:34 39° WSW 19:09:34 39° WSW
CZ-2C R/B 3.7 19:08:18 10° SW 19:09:35 16° SSW 19:09:35 16° SSW
Cosmos 2266 Rocket 4.4 19:09:58 10° NNW 19:16:17 63° W 19:22:35 10° S
GEOS 3 Rocket 4.2 19:19:06 50° NW 19:19:06 50° NW 19:22:55 10° NW
Cosmos 1818 4.0 19:14:42 10° NW 19:19:33 60° W 19:19:33 60° W
Okean O Rocket 4.1 19:23:35 10° SW 19:26:55 21° W 19:30:17 10° NW
Lacrosse 5 rocket 4.1 19:25:40 10° NW 19:26:13 14° NW 19:26:13 14° NW
BREEZE-M DEB (TANK) 4.2 19:20:41 10° SW 19:44:32 82° NW 19:44:57 79° N
Cosmos 2322 Rocket 4.5 20:08:10 10° NW 20:09:40 18° NW 20:09:40 18° NW
